Weather History for Orlando International, FL

Change the Weather History Date:

Thursday, July 25, 2013

  Actual Average Record
Temperature  
Mean Temperature 79 °F 83 °F  
Max Temperature 86 °F 92 °F 99 °F (1962)
Min Temperature 72 °F 74 °F 67 °F (1918)
Degree Days  
Heating Degree Days 0 0  
Month to date heating degree days 0 0  
Since 1 June heating degree days 0 0  
Since 1 July heating degree days 0 0  
Cooling Degree Days 14 18  
Month to date cooling degree days 418 442  
Year to date cooling degree days 1799 1733  
Since 1 June cooling degree days 927 932  
Growing Degree Days 29 (Base 50)    
Moisture  
Dew Point 74 °F    
Average Humidity 87    
Maximum Humidity 100    
Minimum Humidity 74    
Precipitation  
Precipitation 1.44 in 0.25 in 8.19 in (1960)
Month to date precipitation 7.02 5.83  
Year to date precipitation 27.99 28.04  
Sea Level Pressure  
Sea Level Pressure 29.95 in    
Wind  
Wind Speed 8 mph (WSW)    
Max Wind Speed 23 mph    
Max Gust Speed 31 mph    
Visibility 8 miles    
Events Fog , Rain , Thunderstorm    
T = Trace of Precipitation, MM = Missing Value Source: NWS Daily Summary

Daily Weather History Graph

Daily Weather History Graph

Search for Another Location

Airport:

Trip Planner

Search our weather history database for the weather conditions in past years. The results will help you decide how hot, cold, wet, or windy it might be!

Date:

Astronomy

Jul. 25, 2013 Rise Set
Actual Time 6:43 AM EDT 8:19 PM EDT
Civil Twilight 6:17 AM EDT 8:45 PM EDT
Nautical Twilight 5:46 AM EDT 9:16 PM EDT
Astronomical Twilight 5:14 AM EDT 9:48 PM EDT
Moon 10:24 PM EDT (7/25) 9:49 AM EDT (7/25)
Length of Visible Light 14h 28m
Length of Day
13h 36m
Waning Gibbous, 88% of the Moon is Illuminated
Jul 25
Waning Gibbous
Jul 29
Last Quarter
Aug 6
New
Aug 14
First Quarter
Aug 20
Full

Hourly Weather History & Observations

Time (EDT) Temp. Heat Index Dew Point Humidity Pressure Visibility Wind Dir Wind Speed Gust Speed Precip Events Conditions
12:53 AM 79.0 °F - 75.9 °F 90% 29.92 in 10.0 mi SW 8.1 mph - N/A   Mostly Cloudy
1:53 AM 78.1 °F - 75.9 °F 93% 29.90 in 10.0 mi SSW 6.9 mph - N/A   Mostly Cloudy
2:53 AM 78.1 °F - 75.9 °F 93% 29.89 in 10.0 mi SSW 6.9 mph - N/A   Mostly Cloudy
3:53 AM 78.1 °F - 75.9 °F 93% 29.89 in 9.0 mi SW 6.9 mph - N/A   Mostly Cloudy
4:09 AM 77.0 °F - 75.2 °F 94% 29.89 in 9.0 mi SSW 5.8 mph - N/A   Mostly Cloudy
4:38 AM 77.0 °F - 75.2 °F 94% 29.89 in 8.0 mi SSW 6.9 mph - N/A   Scattered Clouds
4:53 AM 77.0 °F - 75.9 °F 96% 29.89 in 8.0 mi SSW 5.8 mph - N/A   Mostly Cloudy
5:15 AM 77.0 °F - 75.2 °F 94% 29.89 in 8.0 mi SW 5.8 mph - N/A   Mostly Cloudy
5:31 AM 78.8 °F - 75.2 °F 89% 29.90 in 8.0 mi NNW 6.9 mph - N/A   Mostly Cloudy
5:37 AM 78.8 °F - 75.2 °F 89% 29.90 in 8.0 mi WSW 3.5 mph - N/A   Mostly Cloudy
5:53 AM 77.0 °F - 75.9 °F 96% 29.90 in 8.0 mi SW 5.8 mph - N/A   Scattered Clouds
6:35 AM 77.0 °F - 75.2 °F 94% 29.91 in 6.0 mi SW 5.8 mph - 0.00 in Rain Rain
6:50 AM 75.2 °F - 73.4 °F 94% 29.93 in 1.0 mi West 23.0 mph 29.9 mph 0.36 in Rain Heavy Rain
6:53 AM 75.0 °F - 73.0 °F 94% 29.93 in 0.8 mi WNW 19.6 mph 29.9 mph 0.45 in Rain Heavy Rain
7:01 AM 73.4 °F - 73.4 °F 100% 29.94 in 0.5 mi West 13.8 mph 25.3 mph 0.46 in Fog , Rain Heavy Rain
7:10 AM 73.4 °F - 71.6 °F 94% 29.95 in 3.0 mi West 15.0 mph 21.9 mph 0.74 in Rain Heavy Rain
7:14 AM 73.4 °F - 69.8 °F 88% 29.95 in 3.0 mi West 11.5 mph 21.9 mph 0.75 in Rain , Thunderstorm Heavy Thunderstorms and Rain
7:25 AM 71.6 °F - 69.8 °F 94% 29.94 in 7.0 mi WSW 6.9 mph - 0.79 in Rain , Thunderstorm Light Thunderstorms and Rain
7:43 AM 71.6 °F - 71.6 °F 100% 29.94 in 9.0 mi SSW 5.8 mph - 0.80 in Rain Light Rain
7:53 AM 72.0 °F - 71.1 °F 97% 29.94 in 10.0 mi SSW 5.8 mph - 0.81 in Rain Light Rain
8:53 AM 75.0 °F - 73.0 °F 94% 29.94 in 10.0 mi SW 5.8 mph - 0.00 in   Mostly Cloudy
9:53 AM 77.0 °F - 75.0 °F 94% 29.96 in 10.0 mi WSW 6.9 mph - N/A   Mostly Cloudy
10:53 AM 80.1 °F 84.5 °F 73.9 °F 81% 29.98 in 10.0 mi WSW 11.5 mph - N/A   Mostly Cloudy
11:53 AM 82.9 °F 90.2 °F 75.0 °F 77% 29.99 in 10.0 mi WSW 10.4 mph - N/A   Mostly Cloudy
12:46 PM 86.0 °F 95.1 °F 75.2 °F 70% 29.99 in 10.0 mi West 13.8 mph 18.4 mph N/A Thunderstorm Thunderstorm
12:53 PM 78.1 °F - 73.0 °F 84% 30.00 in 4.0 mi West 21.9 mph 31.1 mph 0.02 in Rain , Thunderstorm Thunderstorms and Rain
1:12 PM 75.2 °F - 71.6 °F 89% 30.00 in 9.0 mi WSW 17.3 mph - 0.08 in Rain , Thunderstorm Light Thunderstorms and Rain
1:39 PM 75.2 °F - 71.6 °F 89% 30.00 in 10.0 mi WSW 8.1 mph - 0.08 in   Overcast
1:53 PM 75.9 °F - 72.0 °F 87% 29.99 in 10.0 mi WSW 6.9 mph - 0.08 in   Overcast
2:53 PM 80.1 °F 84.5 °F 73.9 °F 81% 29.98 in 10.0 mi WSW 8.1 mph - N/A   Overcast
3:53 PM 82.0 °F 88.6 °F 75.0 °F 79% 29.97 in 10.0 mi West 10.4 mph - N/A   Overcast
4:53 PM 82.9 °F 90.8 °F 75.9 °F 79% 29.96 in 10.0 mi WSW 8.1 mph - N/A   Overcast
5:53 PM 84.0 °F 91.9 °F 75.0 °F 74% 29.95 in 10.0 mi West 9.2 mph - N/A   Overcast
6:53 PM 84.9 °F 93.3 °F 75.0 °F 72% 29.95 in 10.0 mi West 8.1 mph - N/A   Overcast
7:47 PM 82.4 °F 89.5 °F 75.2 °F 79% 29.96 in 10.0 mi West 6.9 mph - N/A   Overcast
7:53 PM 82.9 °F 90.2 °F 75.0 °F 77% 29.96 in 10.0 mi West 5.8 mph - N/A   Overcast
8:53 PM 81.0 °F 87.3 °F 75.9 °F 85% 29.97 in 10.0 mi Calm Calm - N/A   Overcast
9:53 PM 79.0 °F - 75.9 °F 90% 29.97 in 10.0 mi Calm Calm - N/A   Mostly Cloudy
10:23 PM 78.8 °F - 75.2 °F 89% 29.98 in 10.0 mi South 6.9 mph - N/A   Mostly Cloudy
10:44 PM 78.8 °F - 75.2 °F 89% 29.98 in 10.0 mi SSW 3.5 mph - 0.00 in   Mostly Cloudy
10:53 PM 78.1 °F - 75.9 °F 93% 29.98 in 10.0 mi SW 4.6 mph - 0.00 in   Mostly Cloudy
11:53 PM 78.1 °F - 75.9 °F 93% 29.99 in 10.0 mi SW 4.6 mph - N/A   Mostly Cloudy